owner,sensor,date,latitude,longitude,relative_humidity,qcFlag 
DISL,ioos:station:DISL:CATA:1,2015-02-01T00:00:00Z,30.3085,-88.1395,72.19,1111122 
DISL,ioos:station:DISL:CATA:1,2015-02-01T00:30:00Z,30.3085,-88.1395,74.97,1111122 
DISL,ioos:station:DISL:CATA:1,2015-02-01T01:00:00Z,30.3085,-88.1395,77.81,1111122 
DISL,ioos:station:DISL:CATA:1,2015-02-01T01:30:00Z,30.3085,-88.1395,78.84,1111122 
DISL,ioos:station:DISL:CATA:1,2015-02-01T02:00:00Z,30.3085,-88.1395,80.8,1111122 
DISL,ioos:station:DISL:CATA:1,2015-02-01T02:30:00Z,30.3085,-88.1395,82.5,1111122 
DISL,ioos:station:DISL:CATA:1,2015-02-01T03:00:00Z,30.3085,-88.1395,73.59,1111122 
DISL,ioos:station:DISL:CATA:1,2015-02-01T03:30:00Z,30.3085,-88.1395,69.27,1111122 
DISL,ioos:station:DISL:CATA:1,2015-02-01T04:00:00Z,30.3085,-88.1395,66.67,1111122 
DISL,ioos:station:DISL:CATA:1,2015-02-01T04:30:00Z,30.3085,-88.1395,67.49,1111122 
DISL,ioos:station:DISL:CATA:1,2015-02-01T05:00:00Z,30.3085,-88.1395,74.07,1111122 
DISL,ioos:station:DISL:CATA:1,2015-02-01T05:30:00Z,30.3085,-88.1395,79.7,1111122 
DISL,ioos:station:DISL:CATA:1,2015-02-01T06:30:00Z,30.3085,-88.1395,91.1,1111122 
DISL,ioos:station:DISL:CATA:1,2015-02-01T07:00:00Z,30.3085,-88.1395,88.1,1111122 
DISL,ioos:station:DISL:CATA:1,2015-02-01T07:30:00Z,30.3085,-88.1395,89.3,1111122 
DISL,ioos:station:DISL:CATA:1,2015-02-01T08:00:00Z,30.3085,-88.1395,91.1,1111122 
DISL,ioos:station:DISL:CATA:1,2015-02-01T08:30:00Z,30.3085,-88.1395,93.0,1111122 
DISL,ioos:station:DISL:CATA:1,2015-02-01T09:00:00Z,30.3085,-88.1395,95.6,1111122 
DISL,ioos:station:DISL:CATA:1,2015-02-01T09:30:00Z,30.3085,-88.1395,100.0,1111122 
DISL,ioos:station:DISL:CATA:1,2015-02-01T10:00:00Z,30.3085,-88.1395,98.1,1111122 
DISL,ioos:station:DISL:CATA:1,2015-02-01T10:30:00Z,30.3085,-88.1395,95.6,1111122 
DISL,ioos:station:DISL:CATA:1,2015-02-01T11:00:00Z,30.3085,-88.1395,92.1,1111122 
DISL,ioos:station:DISL:CATA:1,2015-02-01T11:30:00Z,30.3085,-88.1395,79.39,1111122 
DISL,ioos:station:DISL:CATA:1,2015-02-01T12:00:00Z,30.3085,-88.1395,84.2,1111122 
DISL,ioos:station:DISL:CATA:1,2015-02-01T12:30:00Z,30.3085,-88.1395,82.4,1111122 
DISL,ioos:station:DISL:CATA:1,2015-02-01T13:00:00Z,30.3085,-88.1395,80.6,1111122 
DISL,ioos:station:DISL:CATA:1,2015-02-01T13:30:00Z,30.3085,-88.1395,83.8,1111122 
DISL,ioos:station:DISL:CATA:1,2015-02-01T14:00:00Z,30.3085,-88.1395,84.7,1111122 
DISL,ioos:station:DISL:CATA:1,2015-02-01T14:30:00Z,30.3085,-88.1395,79.57,1111122 
DISL,ioos:station:DISL:CATA:1,2015-02-01T15:00:00Z,30.3085,-88.1395,77.24,1111122 
DISL,ioos:station:DISL:CATA:1,2015-02-01T15:30:00Z,30.3085,-88.1395,81.1,1111122 
DISL,ioos:station:DISL:CATA:1,2015-02-01T16:00:00Z,30.3085,-88.1395,81.9,1111122 
DISL,ioos:station:DISL:CATA:1,2015-02-01T16:30:00Z,30.3085,-88.1395,86.3,1111122 
DISL,ioos:station:DISL:CATA:1,2015-02-01T17:00:00Z,30.3085,-88.1395,93.9,1111122 
DISL,ioos:station:DISL:CATA:1,2015-02-01T17:30:00Z,30.3085,-88.1395,100.0,1111122 
DISL,ioos:station:DISL:CATA:1,2015-02-01T18:00:00Z,30.3085,-88.1395,100.0,1111122 
DISL,ioos:station:DISL:CATA:1,2015-02-01T18:30:00Z,30.3085,-88.1395,100.0,1111122 
DISL,ioos:station:DISL:CATA:1,2015-02-01T19:00:00Z,30.3085,-88.1395,100.0,1111122 
DISL,ioos:station:DISL:CATA:1,2015-02-01T19:30:00Z,30.3085,-88.1395,100.0,1111122 
DISL,ioos:station:DISL:CATA:1,2015-02-01T20:00:00Z,30.3085,-88.1395,100.0,1111122 
DISL,ioos:station:DISL:CATA:1,2015-02-01T20:30:00Z,30.3085,-88.1395,100.0,1111122 
DISL,ioos:station:DISL:CATA:1,2015-02-01T21:00:00Z,30.3085,-88.1395,100.0,1111122 
DISL,ioos:station:DISL:CATA:1,2015-02-01T21:30:00Z,30.3085,-88.1395,100.0,1111122 
DISL,ioos:station:DISL:CATA:1,2015-02-01T22:00:00Z,30.3085,-88.1395,100.0,1111122 
DISL,ioos:station:DISL:CATA:1,2015-02-01T22:30:00Z,30.3085,-88.1395,100.0,1111122 
DISL,ioos:station:DISL:CATA:1,2015-02-01T23:00:00Z,30.3085,-88.1395,100.0,1111122 
DISL,ioos:station:DISL:CATA:1,2015-02-01T23:30:00Z,30.3085,-88.1395,100.0,1111122 
DISL,ioos:station:DISL:CATA:1,2015-02-02T00:00:00Z,30.3085,-88.1395,100.0,1111122 
DISL,ioos:station:DISL:CATA:1,2015-02-02T00:30:00Z,30.3085,-88.1395,100.0,1111122 
DISL,ioos:station:DISL:CATA:1,2015-02-02T01:00:00Z,30.3085,-88.1395,100.0,1111122 
DISL,ioos:station:DISL:CATA:1,2015-02-02T01:30:00Z,30.3085,-88.1395,100.0,1111122 
DISL,ioos:station:DISL:CATA:1,2015-02-02T02:00:00Z,30.3085,-88.1395,100.0,1111122 
DISL,ioos:station:DISL:CATA:1,2015-02-02T02:30:00Z,30.3085,-88.1395,100.0,1111122 
DISL,ioos:station:DISL:CATA:1,2015-02-02T03:00:00Z,30.3085,-88.1395,100.0,1111122 
DISL,ioos:station:DISL:CATA:1,2015-02-02T03:30:00Z,30.3085,-88.1395,100.0,1111122 
DISL,ioos:station:DISL:CATA:1,2015-02-02T04:00:00Z,30.3085,-88.1395,100.0,1111122 
DISL,ioos:station:DISL:CATA:1,2015-02-02T04:30:00Z,30.3085,-88.1395,100.0,1111122 
DISL,ioos:station:DISL:CATA:1,2015-02-02T05:00:00Z,30.3085,-88.1395,100.0,1111122 
DISL,ioos:station:DISL:CATA:1,2015-02-02T05:30:00Z,30.3085,-88.1395,100.0,1111122 
DISL,ioos:station:DISL:CATA:1,2015-02-02T06:30:00Z,30.3085,-88.1395,82.4,1111122 
DISL,ioos:station:DISL:CATA:1,2015-02-02T07:00:00Z,30.3085,-88.1395,79.6,1111122 
DISL,ioos:station:DISL:CATA:1,2015-02-02T07:30:00Z,30.3085,-88.1395,84.4,1111122 
DISL,ioos:station:DISL:CATA:1,2015-02-02T08:00:00Z,30.3085,-88.1395,86.3,1111122 
DISL,ioos:station:DISL:CATA:1,2015-02-02T08:30:00Z,30.3085,-88.1395,78.76,1111122 
DISL,ioos:station:DISL:CATA:1,2015-02-02T09:00:00Z,30.3085,-88.1395,80.4,1111122 
DISL,ioos:station:DISL:CATA:1,2015-02-02T09:30:00Z,30.3085,-88.1395,82.0,1111122 
DISL,ioos:station:DISL:CATA:1,2015-02-02T10:00:00Z,30.3085,-88.1395,68.04,1111122 
DISL,ioos:station:DISL:CATA:1,2015-02-02T10:30:00Z,30.3085,-88.1395,63.89,1111122 
DISL,ioos:station:DISL:CATA:1,2015-02-02T11:00:00Z,30.3085,-88.1395,61.73,1111122 
DISL,ioos:station:DISL:CATA:1,2015-02-02T11:30:00Z,30.3085,-88.1395,62.41,1111122 
DISL,ioos:station:DISL:CATA:1,2015-02-02T12:00:00Z,30.3085,-88.1395,66.98,1111122 
DISL,ioos:station:DISL:CATA:1,2015-02-02T12:30:00Z,30.3085,-88.1395,69.55,1111122 
DISL,ioos:station:DISL:CATA:1,2015-02-02T13:00:00Z,30.3085,-88.1395,66.04,1111122 
DISL,ioos:station:DISL:CATA:1,2015-02-02T13:30:00Z,30.3085,-88.1395,71.87,1111122 
DISL,ioos:station:DISL:CATA:1,2015-02-02T14:00:00Z,30.3085,-88.1395,66.31,1111122 
DISL,ioos:station:DISL:CATA:1,2015-02-02T14:30:00Z,30.3085,-88.1395,61.96,1111122 
DISL,ioos:station:DISL:CATA:1,2015-02-02T15:00:00Z,30.3085,-88.1395,57.46,1111122 
DISL,ioos:station:DISL:CATA:1,2015-02-02T15:30:00Z,30.3085,-88.1395,60.48,1111122 
DISL,ioos:station:DISL:CATA:1,2015-02-02T16:00:00Z,30.3085,-88.1395,60.45,1111122 
DISL,ioos:station:DISL:CATA:1,2015-02-02T16:30:00Z,30.3085,-88.1395,61.34,1111122 
DISL,ioos:station:DISL:CATA:1,2015-02-02T17:00:00Z,30.3085,-88.1395,57.35,1111122 
DISL,ioos:station:DISL:CATA:1,2015-02-02T17:30:00Z,30.3085,-88.1395,53.33,1111122 
DISL,ioos:station:DISL:CATA:1,2015-02-02T18:00:00Z,30.3085,-88.1395,50.79,1111122 
DISL,ioos:station:DISL:CATA:1,2015-02-02T18:30:00Z,30.3085,-88.1395,49.31,1111122 
DISL,ioos:station:DISL:CATA:1,2015-02-02T19:00:00Z,30.3085,-88.1395,45.23,1111122 
DISL,ioos:station:DISL:CATA:1,2015-02-02T19:30:00Z,30.3085,-88.1395,43.55,1111122 
DISL,ioos:station:DISL:CATA:1,2015-02-02T20:00:00Z,30.3085,-88.1395,43.07,1111122 
DISL,ioos:station:DISL:CATA:1,2015-02-02T20:30:00Z,30.3085,-88.1395,51.13,1111122 
DISL,ioos:station:DISL:CATA:1,2015-02-02T21:00:00Z,30.3085,-88.1395,52.06,1111122 
DISL,ioos:station:DISL:CATA:1,2015-02-02T21:30:00Z,30.3085,-88.1395,46.78,1111122 
DISL,ioos:station:DISL:CATA:1,2015-02-02T22:00:00Z,30.3085,-88.1395,49.97,1111122 
DISL,ioos:station:DISL:CATA:1,2015-02-02T22:30:00Z,30.3085,-88.1395,52.33,1111122 
DISL,ioos:station:DISL:CATA:1,2015-02-02T23:00:00Z,30.3085,-88.1395,43.86,1111122 
DISL,ioos:station:DISL:CATA:1,2015-02-02T23:30:00Z,30.3085,-88.1395,44.2,1111122 
DISL,ioos:station:DISL:CATA:1,2015-02-03T00:00:00Z,30.3085,-88.1395,47.4,1111122 
DISL,ioos:station:DISL:CATA:1,2015-02-03T00:30:00Z,30.3085,-88.1395,48.34,1111122 
DISL,ioos:station:DISL:CATA:1,2015-02-03T01:00:00Z,30.3085,-88.1395,50.36,1111122 
DISL,ioos:station:DISL:CATA:1,2015-02-03T01:30:00Z,30.3085,-88.1395,54.07,1111122 
DISL,ioos:station:DISL:CATA:1,2015-02-03T02:00:00Z,30.3085,-88.1395,56.78,1111122 
DISL,ioos:station:DISL:CATA:1,2015-02-03T02:30:00Z,30.3085,-88.1395,57.71,1111122 
DISL,ioos:station:DISL:CATA:1,2015-02-03T03:00:00Z,30.3085,-88.1395,62.93,1111122 
DISL,ioos:station:DISL:CATA:1,2015-02-03T03:30:00Z,30.3085,-88.1395,65.31,1111122 
DISL,ioos:station:DISL:CATA:1,2015-02-03T04:00:00Z,30.3085,-88.1395,66.33,1111122 
DISL,ioos:station:DISL:CATA:1,2015-02-03T04:30:00Z,30.3085,-88.1395,66.47,1111122 
DISL,ioos:station:DISL:CATA:1,2015-02-03T05:00:00Z,30.3085,-88.1395,67.33,1111122 
DISL,ioos:station:DISL:CATA:1,2015-02-03T05:30:00Z,30.3085,-88.1395,66.13,1111122 
DISL,ioos:station:DISL:CATA:1,2015-02-03T06:30:00Z,30.3085,-88.1395,73.58,1111122 
DISL,ioos:station:DISL:CATA:1,2015-02-03T07:00:00Z,30.3085,-88.1395,70.66,1111122 
DISL,ioos:station:DISL:CATA:1,2015-02-03T07:30:00Z,30.3085,-88.1395,67.88,1111122 
DISL,ioos:station:DISL:CATA:1,2015-02-03T08:00:00Z,30.3085,-88.1395,69.05,1111122 
DISL,ioos:station:DISL:CATA:1,2015-02-03T08:30:00Z,30.3085,-88.1395,69.73,1111122 
DISL,ioos:station:DISL:CATA:1,2015-02-03T09:00:00Z,30.3085,-88.1395,70.9,1111122 
DISL,ioos:station:DISL:CATA:1,2015-02-03T09:30:00Z,30.3085,-88.1395,65.03,1111122 
DISL,ioos:station:DISL:CATA:1,2015-02-03T10:00:00Z,30.3085,-88.1395,66.64,1111122 
DISL,ioos:station:DISL:CATA:1,2015-02-03T10:30:00Z,30.3085,-88.1395,65.2,1111122 
DISL,ioos:station:DISL:CATA:1,2015-02-03T11:00:00Z,30.3085,-88.1395,70.08,1111122 
DISL,ioos:station:DISL:CATA:1,2015-02-03T11:30:00Z,30.3085,-88.1395,65.41,1111122 
DISL,ioos:station:DISL:CATA:1,2015-02-03T12:00:00Z,30.3085,-88.1395,68.22,1111122 
DISL,ioos:station:DISL:CATA:1,2015-02-03T12:30:00Z,30.3085,-88.1395,65.2,1111122 
DISL,ioos:station:DISL:CATA:1,2015-02-03T13:00:00Z,30.3085,-88.1395,65.31,1111122 
DISL,ioos:station:DISL:CATA:1,2015-02-03T13:30:00Z,30.3085,-88.1395,63.14,1111122 
DISL,ioos:station:DISL:CATA:1,2015-02-03T14:00:00Z,30.3085,-88.1395,64.72,1111122 
DISL,ioos:station:DISL:CATA:1,2015-02-03T14:30:00Z,30.3085,-88.1395,65.72,1111122 
DISL,ioos:station:DISL:CATA:1,2015-02-03T15:00:00Z,30.3085,-88.1395,67.81,1111122 
DISL,ioos:station:DISL:CATA:1,2015-02-03T15:30:00Z,30.3085,-88.1395,67.26,1111122 
DISL,ioos:station:DISL:CATA:1,2015-02-03T16:00:00Z,30.3085,-88.1395,63.52,1111122 
DISL,ioos:station:DISL:CATA:1,2015-02-03T16:30:00Z,30.3085,-88.1395,63.52,1111122 
DISL,ioos:station:DISL:CATA:1,2015-02-03T17:00:00Z,30.3085,-88.1395,62.87,1111122 
DISL,ioos:station:DISL:CATA:1,2015-02-03T17:30:00Z,30.3085,-88.1395,62.28,1111122 
DISL,ioos:station:DISL:CATA:1,2015-02-03T18:00:00Z,30.3085,-88.1395,63.41,1111122 
DISL,ioos:station:DISL:CATA:1,2015-02-03T18:30:00Z,30.3085,-88.1395,62.82,1111122 
DISL,ioos:station:DISL:CATA:1,2015-02-03T19:00:00Z,30.3085,-88.1395,58.16,1111122 
DISL,ioos:station:DISL:CATA:1,2015-02-03T19:30:00Z,30.3085,-88.1395,54.76,1111122 
DISL,ioos:station:DISL:CATA:1,2015-02-03T20:00:00Z,30.3085,-88.1395,60.52,1111122 
DISL,ioos:station:DISL:CATA:1,2015-02-03T20:30:00Z,30.3085,-88.1395,59.45,1111122 
DISL,ioos:station:DISL:CATA:1,2015-02-03T21:00:00Z,30.3085,-88.1395,57.87,1111122 
DISL,ioos:station:DISL:CATA:1,2015-02-03T21:30:00Z,30.3085,-88.1395,55.33,1111122 
DISL,ioos:station:DISL:CATA:1,2015-02-03T22:00:00Z,30.3085,-88.1395,54.89,1111122 
DISL,ioos:station:DISL:CATA:1,2015-02-03T22:30:00Z,30.3085,-88.1395,48.16,1111122 
DISL,ioos:station:DISL:CATA:1,2015-02-03T23:00:00Z,30.3085,-88.1395,50.02,1111122 
DISL,ioos:station:DISL:CATA:1,2015-02-03T23:30:00Z,30.3085,-88.1395,53.93,1111122 
DISL,ioos:station:DISL:CATA:1,2015-02-04T00:00:00Z,30.3085,-88.1395,55.37,1111122 
DISL,ioos:station:DISL:CATA:1,2015-02-04T00:30:00Z,30.3085,-88.1395,56.74,1111122 
DISL,ioos:station:DISL:CATA:1,2015-02-04T01:00:00Z,30.3085,-88.1395,58.25,1111122 
DISL,ioos:station:DISL:CATA:1,2015-02-04T01:30:00Z,30.3085,-88.1395,56.64,1111122 
DISL,ioos:station:DISL:CATA:1,2015-02-04T02:00:00Z,30.3085,-88.1395,58.66,1111122 
DISL,ioos:station:DISL:CATA:1,2015-02-04T02:30:00Z,30.3085,-88.1395,61.06,1111122 
DISL,ioos:station:DISL:CATA:1,2015-02-04T03:00:00Z,30.3085,-88.1395,63.43,1111122 
DISL,ioos:station:DISL:CATA:1,2015-02-04T03:30:00Z,30.3085,-88.1395,64.63,1111122 
DISL,ioos:station:DISL:CATA:1,2015-02-04T04:00:00Z,30.3085,-88.1395,64.49,1111122 
DISL,ioos:station:DISL:CATA:1,2015-02-04T04:30:00Z,30.3085,-88.1395,56.95,1111122 
DISL,ioos:station:DISL:CATA:1,2015-02-04T05:00:00Z,30.3085,-88.1395,51.66,1111122 
DISL,ioos:station:DISL:CATA:1,2015-02-04T05:30:00Z,30.3085,-88.1395,52.52,1111122 
DISL,ioos:station:DISL:CATA:1,2015-02-04T06:30:00Z,30.3085,-88.1395,56.4,1111122 
DISL,ioos:station:DISL:CATA:1,2015-02-04T07:00:00Z,30.3085,-88.1395,59.79,1111122 
DISL,ioos:station:DISL:CATA:1,2015-02-04T07:30:00Z,30.3085,-88.1395,58.97,1111122 
DISL,ioos:station:DISL:CATA:1,2015-02-04T08:00:00Z,30.3085,-88.1395,59.18,1111122 
DISL,ioos:station:DISL:CATA:1,2015-02-04T08:30:00Z,30.3085,-88.1395,60.79,1111122 
DISL,ioos:station:DISL:CATA:1,2015-02-04T09:00:00Z,30.3085,-88.1395,61.95,1111122 
DISL,ioos:station:DISL:CATA:1,2015-02-04T09:30:00Z,30.3085,-88.1395,67.88,1111122 
DISL,ioos:station:DISL:CATA:1,2015-02-04T10:00:00Z,30.3085,-88.1395,70.29,1111122 
DISL,ioos:station:DISL:CATA:1,2015-02-04T10:30:00Z,30.3085,-88.1395,67.72,1111122 
DISL,ioos:station:DISL:CATA:1,2015-02-04T11:00:00Z,30.3085,-88.1395,73.14,1111122 
DISL,ioos:station:DISL:CATA:1,2015-02-04T11:30:00Z,30.3085,-88.1395,79.07,1111122 
DISL,ioos:station:DISL:CATA:1,2015-02-04T12:00:00Z,30.3085,-88.1395,83.8,1111122 
DISL,ioos:station:DISL:CATA:1,2015-02-04T12:30:00Z,30.3085,-88.1395,87.4,1111122 
DISL,ioos:station:DISL:CATA:1,2015-02-04T13:00:00Z,30.3085,-88.1395,94.5,1111122 
DISL,ioos:station:DISL:CATA:1,2015-02-04T13:30:00Z,30.3085,-88.1395,100.0,1111122 
DISL,ioos:station:DISL:CATA:1,2015-02-04T14:00:00Z,30.3085,-88.1395,100.0,1111122 
DISL,ioos:station:DISL:CATA:1,2015-02-04T14:30:00Z,30.3085,-88.1395,100.0,1111122 
DISL,ioos:station:DISL:CATA:1,2015-02-04T15:00:00Z,30.3085,-88.1395,100.0,1111122 
DISL,ioos:station:DISL:CATA:1,2015-02-04T15:30:00Z,30.3085,-88.1395,100.0,1111122 
DISL,ioos:station:DISL:CATA:1,2015-02-04T16:00:00Z,30.3085,-88.1395,100.0,1111122 
DISL,ioos:station:DISL:CATA:1,2015-02-04T16:30:00Z,30.3085,-88.1395,100.0,1111122 
DISL,ioos:station:DISL:CATA:1,2015-02-04T17:00:00Z,30.3085,-88.1395,100.0,1111122 
DISL,ioos:station:DISL:CATA:1,2015-02-04T17:30:00Z,30.3085,-88.1395,100.0,1111122 
DISL,ioos:station:DISL:CATA:1,2015-02-04T18:00:00Z,30.3085,-88.1395,100.0,1111122 
DISL,ioos:station:DISL:CATA:1,2015-02-04T18:30:00Z,30.3085,-88.1395,100.0,1111122 
DISL,ioos:station:DISL:CATA:1,2015-02-04T19:00:00Z,30.3085,-88.1395,100.0,1111122 
DISL,ioos:station:DISL:CATA:1,2015-02-04T19:30:00Z,30.3085,-88.1395,90.0,1111122 
DISL,ioos:station:DISL:CATA:1,2015-02-04T20:00:00Z,30.3085,-88.1395,93.1,1111122 
DISL,ioos:station:DISL:CATA:1,2015-02-04T20:30:00Z,30.3085,-88.1395,100.0,1111122 
DISL,ioos:station:DISL:CATA:1,2015-02-04T21:00:00Z,30.3085,-88.1395,100.0,1111122 
DISL,ioos:station:DISL:CATA:1,2015-02-04T21:30:00Z,30.3085,-88.1395,100.0,1111122 
DISL,ioos:station:DISL:CATA:1,2015-02-04T22:00:00Z,30.3085,-88.1395,100.0,1111122 
DISL,ioos:station:DISL:CATA:1,2015-02-04T22:30:00Z,30.3085,-88.1395,100.0,1111122 
DISL,ioos:station:DISL:CATA:1,2015-02-04T23:00:00Z,30.3085,-88.1395,100.0,1111122 
DISL,ioos:station:DISL:CATA:1,2015-02-04T23:30:00Z,30.3085,-88.1395,100.0,1111122 
DISL,ioos:station:DISL:CATA:1,2015-02-05T00:00:00Z,30.3085,-88.1395,100.0,1111122 
DISL,ioos:station:DISL:CATA:1,2015-02-05T00:30:00Z,30.3085,-88.1395,100.0,1111122 
DISL,ioos:station:DISL:CATA:1,2015-02-05T01:00:00Z,30.3085,-88.1395,100.0,1111122 
DISL,ioos:station:DISL:CATA:1,2015-02-05T01:30:00Z,30.3085,-88.1395,100.0,1111122 
DISL,ioos:station:DISL:CATA:1,2015-02-05T02:00:00Z,30.3085,-88.1395,100.0,1111122 
DISL,ioos:station:DISL:CATA:1,2015-02-05T02:30:00Z,30.3085,-88.1395,99.0,1111122 
DISL,ioos:station:DISL:CATA:1,2015-02-05T03:00:00Z,30.3085,-88.1395,99.9,1111122 
DISL,ioos:station:DISL:CATA:1,2015-02-05T03:30:00Z,30.3085,-88.1395,100.0,1111122 
DISL,ioos:station:DISL:CATA:1,2015-02-05T04:00:00Z,30.3085,-88.1395,100.0,1111122 
DISL,ioos:station:DISL:CATA:1,2015-02-05T04:30:00Z,30.3085,-88.1395,100.0,1111122 
DISL,ioos:station:DISL:CATA:1,2015-02-05T05:00:00Z,30.3085,-88.1395,100.0,1111122 
DISL,ioos:station:DISL:CATA:1,2015-02-05T05:30:00Z,30.3085,-88.1395,100.0,1111122 
DISL,ioos:station:DISL:CATA:1,2015-02-05T06:30:00Z,30.3085,-88.1395,100.0,1111122 
DISL,ioos:station:DISL:CATA:1,2015-02-05T07:00:00Z,30.3085,-88.1395,100.0,1111122 
DISL,ioos:station:DISL:CATA:1,2015-02-05T07:30:00Z,30.3085,-88.1395,100.0,1111122 
DISL,ioos:station:DISL:CATA:1,2015-02-05T08:00:00Z,30.3085,-88.1395,100.0,1111122 
DISL,ioos:station:DISL:CATA:1,2015-02-05T08:30:00Z,30.3085,-88.1395,98.6,1111122 
DISL,ioos:station:DISL:CATA:1,2015-02-05T09:00:00Z,30.3085,-88.1395,88.3,1111122 
DISL,ioos:station:DISL:CATA:1,2015-02-05T09:30:00Z,30.3085,-88.1395,87.4,1111122 
DISL,ioos:station:DISL:CATA:1,2015-02-05T10:00:00Z,30.3085,-88.1395,89.8,1111122 
DISL,ioos:station:DISL:CATA:1,2015-02-05T10:30:00Z,30.3085,-88.1395,93.0,1111122 
DISL,ioos:station:DISL:CATA:1,2015-02-05T11:00:00Z,30.3085,-88.1395,87.6,1111122 
DISL,ioos:station:DISL:CATA:1,2015-02-05T11:30:00Z,30.3085,-88.1395,87.0,1111122 
DISL,ioos:station:DISL:CATA:1,2015-02-05T12:00:00Z,30.3085,-88.1395,85.1,1111122 
DISL,ioos:station:DISL:CATA:1,2015-02-05T12:30:00Z,30.3085,-88.1395,82.3,1111122 
DISL,ioos:station:DISL:CATA:1,2015-02-05T13:00:00Z,30.3085,-88.1395,78.47,1111122 
DISL,ioos:station:DISL:CATA:1,2015-02-05T13:30:00Z,30.3085,-88.1395,75.2,1111122 
DISL,ioos:station:DISL:CATA:1,2015-02-05T14:00:00Z,30.3085,-88.1395,68.58,1111122 
DISL,ioos:station:DISL:CATA:1,2015-02-05T14:30:00Z,30.3085,-88.1395,62.98,1111122 
DISL,ioos:station:DISL:CATA:1,2015-02-05T15:00:00Z,30.3085,-88.1395,62.61,1111122 
DISL,ioos:station:DISL:CATA:1,2015-02-05T15:30:00Z,30.3085,-88.1395,59.79,1111122 
DISL,ioos:station:DISL:CATA:1,2015-02-05T16:00:00Z,30.3085,-88.1395,62.9,1111122 
DISL,ioos:station:DISL:CATA:1,2015-02-05T16:30:00Z,30.3085,-88.1395,63.82,1111122 
DISL,ioos:station:DISL:CATA:1,2015-02-05T17:00:00Z,30.3085,-88.1395,64.71,1111122 
DISL,ioos:station:DISL:CATA:1,2015-02-05T17:30:00Z,30.3085,-88.1395,64.78,1111122 
DISL,ioos:station:DISL:CATA:1,2015-02-05T18:00:00Z,30.3085,-88.1395,70.03,1111122 
DISL,ioos:station:DISL:CATA:1,2015-02-05T18:30:00Z,30.3085,-88.1395,69.68,1111122 
DISL,ioos:station:DISL:CATA:1,2015-02-05T19:00:00Z,30.3085,-88.1395,68.18,1111122 
DISL,ioos:station:DISL:CATA:1,2015-02-05T19:30:00Z,30.3085,-88.1395,68.35,1111122 
DISL,ioos:station:DISL:CATA:1,2015-02-05T20:00:00Z,30.3085,-88.1395,67.65,1111122 
DISL,ioos:station:DISL:CATA:1,2015-02-05T20:30:00Z,30.3085,-88.1395,67.82,1111122 
DISL,ioos:station:DISL:CATA:1,2015-02-05T21:00:00Z,30.3085,-88.1395,48.89,1111122 
DISL,ioos:station:DISL:CATA:1,2015-02-05T21:30:00Z,30.3085,-88.1395,47.31,1111122 
DISL,ioos:station:DISL:CATA:1,2015-02-05T22:00:00Z,30.3085,-88.1395,49.71,1111122 
DISL,ioos:station:DISL:CATA:1,2015-02-05T22:30:00Z,30.3085,-88.1395,49.26,1111122 
DISL,ioos:station:DISL:CATA:1,2015-02-05T23:00:00Z,30.3085,-88.1395,48.54,1111122 
DISL,ioos:station:DISL:CATA:1,2015-02-05T23:30:00Z,30.3085,-88.1395,51.12,1111122 
DISL,ioos:station:DISL:CATA:1,2015-02-06T00:00:00Z,30.3085,-88.1395,55.66,1111122 
DISL,ioos:station:DISL:CATA:1,2015-02-06T00:30:00Z,30.3085,-88.1395,55.62,1111122 
DISL,ioos:station:DISL:CATA:1,2015-02-06T01:00:00Z,30.3085,-88.1395,51.82,1111122 
DISL,ioos:station:DISL:CATA:1,2015-02-06T01:30:00Z,30.3085,-88.1395,52.3,1111122 
DISL,ioos:station:DISL:CATA:1,2015-02-06T02:00:00Z,30.3085,-88.1395,49.28,1111122 
DISL,ioos:station:DISL:CATA:1,2015-02-06T02:30:00Z,30.3085,-88.1395,47.81,1111122 
DISL,ioos:station:DISL:CATA:1,2015-02-06T03:00:00Z,30.3085,-88.1395,53.45,1111122 
DISL,ioos:station:DISL:CATA:1,2015-02-06T03:30:00Z,30.3085,-88.1395,48.16,1111122 
DISL,ioos:station:DISL:CATA:1,2015-02-06T04:00:00Z,30.3085,-88.1395,44.6,1111122 
DISL,ioos:station:DISL:CATA:1,2015-02-06T04:30:00Z,30.3085,-88.1395,45.35,1111122 
DISL,ioos:station:DISL:CATA:1,2015-02-06T05:00:00Z,30.3085,-88.1395,46.07,1111122 
DISL,ioos:station:DISL:CATA:1,2015-02-06T05:30:00Z,30.3085,-88.1395,45.98,1111122 
DISL,ioos:station:DISL:CATA:1,2015-02-06T06:30:00Z,30.3085,-88.1395,50.41,1111122 
DISL,ioos:station:DISL:CATA:1,2015-02-06T07:00:00Z,30.3085,-88.1395,51.82,1111122 
DISL,ioos:station:DISL:CATA:1,2015-02-06T07:30:00Z,30.3085,-88.1395,52.47,1111122 
DISL,ioos:station:DISL:CATA:1,2015-02-06T08:00:00Z,30.3085,-88.1395,55.28,1111122 
DISL,ioos:station:DISL:CATA:1,2015-02-06T08:30:00Z,30.3085,-88.1395,57.28,1111122 
DISL,ioos:station:DISL:CATA:1,2015-02-06T09:00:00Z,30.3085,-88.1395,62.63,1111122 
DISL,ioos:station:DISL:CATA:1,2015-02-06T09:30:00Z,30.3085,-88.1395,63.83,1111122 
DISL,ioos:station:DISL:CATA:1,2015-02-06T10:00:00Z,30.3085,-88.1395,64.38,1111122 
DISL,ioos:station:DISL:CATA:1,2015-02-06T10:30:00Z,30.3085,-88.1395,64.28,1111122 
DISL,ioos:station:DISL:CATA:1,2015-02-06T11:00:00Z,30.3085,-88.1395,64.83,1111122 
DISL,ioos:station:DISL:CATA:1,2015-02-06T11:30:00Z,30.3085,-88.1395,55.94,1111122 
DISL,ioos:station:DISL:CATA:1,2015-02-06T12:00:00Z,30.3085,-88.1395,53.23,1111122 
DISL,ioos:station:DISL:CATA:1,2015-02-06T12:30:00Z,30.3085,-88.1395,58.03,1111122 
DISL,ioos:station:DISL:CATA:1,2015-02-06T13:00:00Z,30.3085,-88.1395,54.56,1111122 
DISL,ioos:station:DISL:CATA:1,2015-02-06T13:30:00Z,30.3085,-88.1395,57.52,1111122 
DISL,ioos:station:DISL:CATA:1,2015-02-06T14:00:00Z,30.3085,-88.1395,50.93,1111122 
DISL,ioos:station:DISL:CATA:1,2015-02-06T14:30:00Z,30.3085,-88.1395,54.84,1111122 
DISL,ioos:station:DISL:CATA:1,2015-02-06T15:00:00Z,30.3085,-88.1395,53.32,1111122 
DISL,ioos:station:DISL:CATA:1,2015-02-06T15:30:00Z,30.3085,-88.1395,52.32,1111122 
DISL,ioos:station:DISL:CATA:1,2015-02-06T16:00:00Z,30.3085,-88.1395,51.7,1111122 
DISL,ioos:station:DISL:CATA:1,2015-02-06T16:30:00Z,30.3085,-88.1395,45.25,1111122 
DISL,ioos:station:DISL:CATA:1,2015-02-06T17:00:00Z,30.3085,-88.1395,48.26,1111122 
DISL,ioos:station:DISL:CATA:1,2015-02-06T17:30:00Z,30.3085,-88.1395,49.86,1111122 
DISL,ioos:station:DISL:CATA:1,2015-02-06T18:00:00Z,30.3085,-88.1395,46.78,1111122 
DISL,ioos:station:DISL:CATA:1,2015-02-06T18:30:00Z,30.3085,-88.1395,47.81,1111122 
DISL,ioos:station:DISL:CATA:1,2015-02-06T19:00:00Z,30.3085,-88.1395,44.86,1111122 
DISL,ioos:station:DISL:CATA:1,2015-02-06T19:30:00Z,30.3085,-88.1395,47.19,1111122 
DISL,ioos:station:DISL:CATA:1,2015-02-06T20:00:00Z,30.3085,-88.1395,48.22,1111122 
DISL,ioos:station:DISL:CATA:1,2015-02-06T20:30:00Z,30.3085,-88.1395,48.15,1111122 
DISL,ioos:station:DISL:CATA:1,2015-02-06T21:00:00Z,30.3085,-88.1395,44.4,1111122 
DISL,ioos:station:DISL:CATA:1,2015-02-06T21:30:00Z,30.3085,-88.1395,28.01,1111122 
DISL,ioos:station:DISL:CATA:1,2015-02-06T22:00:00Z,30.3085,-88.1395,26.33,1111122 
DISL,ioos:station:DISL:CATA:1,2015-02-06T22:30:00Z,30.3085,-88.1395,28.63,1111122 
DISL,ioos:station:DISL:CATA:1,2015-02-06T23:00:00Z,30.3085,-88.1395,30.96,1111122 
DISL,ioos:station:DISL:CATA:1,2015-02-06T23:30:00Z,30.3085,-88.1395,34.67,1111122 
DISL,ioos:station:DISL:CATA:1,2015-02-07T00:00:00Z,30.3085,-88.1395,41.67,1111122 
DISL,ioos:station:DISL:CATA:1,2015-02-07T00:30:00Z,30.3085,-88.1395,52.37,1111122 
DISL,ioos:station:DISL:CATA:1,2015-02-07T01:00:00Z,30.3085,-88.1395,55.12,1111122 
DISL,ioos:station:DISL:CATA:1,2015-02-07T01:30:00Z,30.3085,-88.1395,56.12,1111122 
DISL,ioos:station:DISL:CATA:1,2015-02-07T02:00:00Z,30.3085,-88.1395,54.27,1111122 
DISL,ioos:station:DISL:CATA:1,2015-02-07T02:30:00Z,30.3085,-88.1395,52.45,1111122 
DISL,ioos:station:DISL:CATA:1,2015-02-07T03:00:00Z,30.3085,-88.1395,57.94,1111122 